Location: Rosenheim
(47.8408°N, 12.2113°E)
Time: 16:57:45
(UTC+01:00)

ISS - Pass Details

Date: 22 March 2017
Orbit: 399 x 409 km, 51.6° (Epoch: 25 March)

Event Time Altitude Azimuth Distance (km) Brightness Sun altitude
Exits shadow 05:19:44 13° 253° (WSW) 1,288 -2.0 -9.2°
Maximum altitude 05:21:11 17° 223° (SW) 1,126 -2.1 -9.0°
Drops below altitude 10° 05:23:23 10° 180° (S) 1,467 -1.1 -8.6°
Sets 05:25:57 0° 159° (SSE) 2,324 0.2 -8.2°
